Location: ??
(35.5090°N, 139.6783°E)
Time: 02:26:38
(UTC+00:00)

Spot 4 Rocket - Pass Details

Date: 08 November 2025
Orbit: 769 x 773 km, 98.8° (Epoch: 09 December)

Event Time Altitude Azimuth Distance (km) Brightness Sun altitude
Rises 09:17:05 0° 169° (S) 3,226 7.2 -20.0°
Reaches altitude 10° 09:19:22 10° 171° (S) 2,303 6.4 -20.5°
Maximum altitude 09:24:27 76° 257° (WSW) 796 4.1 -21.5°
Drops below altitude 10° 09:29:33 10° 343° (NNW) 2,316 6.6 -22.5°
Sets 09:31:52 0° 345° (NNW) 3,246 7.4 -23.0°
